Jonesboro, AR

10:28 PM CDT on May 23, 2018 (GMT -0500)
Jonesboro Municipal

Weather History for KJBR - August, 2013

Change the Weather History Date:

Monday, August 5, 2013

  Actual Average Record
Temperature  
Mean Temperature 77 °F 81 °F  
Max Temperature 82 °F 91 °F 108 °F (1934)
Min Temperature 72 °F 71 °F 53 °F (1912)
Degree Days  
Heating Degree Days 0 0  
Month to date heating degree days 0 0  
Since 1 June heating degree days 0 1  
Since 1 July heating degree days 0 0  
Cooling Degree Days 12 16  
Month to date cooling degree days 65 80  
Year to date cooling degree days 1199 1167  
Since 1 June cooling degree days 969 954  
Growing Degree Days 26 (Base 50)    
Moisture  
Dew Point 73 °F    
Average Humidity 89    
Maximum Humidity 93    
Minimum Humidity 84    
Precipitation  
Precipitation 0.31 in 0.08 in 3.34 in (2015)
Month to date precipitation 0.57 0.41  
Year to date precipitation 34.30 28.98  
Snow  
Snow 0.00 in - - ()
Month to date snowfall 0.0  
Since 1 June snowfall 0.0  
Snow Depth 0.00 in    
Sea Level Pressure  
Sea Level Pressure 29.98 in    
Wind  
Wind Speed 5 mph (SE)    
Max Wind Speed 12 mph    
Max Gust Speed 15 mph    
Visibility 8 miles    
Events Rain , Thunderstorm    
T = Trace of Precipitation, MM = Missing Value Source: NWS Daily Summary

Daily Weather History Graph

Daily Weather History Graph

Search for Another Location

Airport or City:

Astronomy

Aug. 05, 2013 Rise Set
Actual Time 6:13 AM CDT 8:02 PM CDT
Civil Twilight 5:45 AM CDT 8:30 PM CDT
Nautical Twilight 5:12 AM CDT 9:04 PM CDT
Astronomical Twilight 4:36 AM CDT 9:40 PM CDT
Moon 5:08 AM CDT (8/5) 7:04 PM CDT (8/5)
Length of Visible Light 14h 44m
Length of Day
13h 49m
Waning Crescent, 1% of the Moon is Illuminated
Aug 5
Waning Crescent
Aug 6
New
Aug 14
First Quarter
Aug 20
Full
Aug 28
Last Quarter

Hourly Weather History & Observations

Time (CDT) Temp. Heat Index Dew Point Humidity Pressure Visibility Wind Dir Wind Speed Gust Speed Precip Events Conditions
12:53 AM 73.9 °F - 70.0 °F 87% 30.06 in 10.0 mi NNE 4.6 mph - N/A   Partly Cloudy
1:53 AM 73.9 °F - 69.1 °F 85% 30.06 in 10.0 mi NNE 4.6 mph - N/A   Partly Cloudy
2:53 AM 73.9 °F - 68.0 °F 82% 30.05 in 10.0 mi NE 4.6 mph - N/A   Overcast
3:53 AM 73.0 °F - 69.1 °F 87% 30.02 in 10.0 mi East 4.6 mph - N/A   Overcast
4:53 AM 73.0 °F - 69.1 °F 87% 30.02 in 10.0 mi East 5.8 mph - 0.00 in Rain Light Rain
5:53 AM 73.0 °F - 69.1 °F 87% 30.04 in 10.0 mi Calm Calm - 0.00 in   Overcast
6:16 AM 71.6 °F - 69.8 °F 94% 30.06 in 2.0 mi Calm Calm - 0.09 in Rain Rain
6:27 AM 71.6 °F - 69.8 °F 94% 30.06 in 5.0 mi Calm Calm - 0.10 in Rain Light Rain
6:53 AM 72.0 °F - 70.0 °F 93% 30.04 in 8.0 mi East 5.8 mph - 0.12 in Rain Light Rain
7:53 AM 73.0 °F - 69.1 °F 87% 30.03 in 10.0 mi East 5.8 mph - 0.01 in   Overcast
8:53 AM 73.0 °F - 70.0 °F 90% 30.03 in 10.0 mi SE 4.6 mph - 0.01 in   Overcast
9:53 AM 73.0 °F - 70.0 °F 90% 30.04 in 7.0 mi South 8.1 mph - 0.01 in Rain Light Rain
10:31 AM 73.4 °F - 69.8 °F 88% 30.04 in 5.0 mi SSE 9.2 mph - 0.02 in Rain , Thunderstorm Light Thunderstorms and Rain
10:53 AM 73.0 °F - 70.0 °F 90% 30.04 in 8.0 mi South 5.8 mph - 0.03 in Rain Light Rain
11:53 AM 73.9 °F - 71.1 °F 91% 30.02 in 7.0 mi SE 3.5 mph - 0.04 in Rain Light Rain
12:34 PM 73.4 °F - 71.6 °F 94% 30.01 in 4.0 mi SSE 6.9 mph - 0.05 in Rain , Thunderstorm Light Rain
12:53 PM 75.0 °F - 72.0 °F 90% 30.00 in 7.0 mi South 6.9 mph - 0.06 in Rain Light Rain
1:00 PM 75.2 °F - 71.6 °F 89% 29.99 in 7.0 mi SSE 6.9 mph - 0.00 in   Mostly Cloudy
1:23 PM 75.2 °F - 73.4 °F 94% 30.00 in 6.0 mi South 5.8 mph - 0.00 in   Mostly Cloudy
1:53 PM 75.9 °F - 73.9 °F 94% 29.99 in 7.0 mi NNE 3.5 mph - 0.00 in   Overcast
2:47 PM 75.2 °F - 73.4 °F 94% 29.98 in 6.0 mi East 4.6 mph - 0.01 in   Overcast
2:53 PM 77.0 °F - 73.9 °F 90% 29.97 in 7.0 mi ESE 4.6 mph - 0.01 in Rain Light Rain
3:15 PM 77.0 °F - 73.4 °F 89% 29.96 in 8.0 mi ESE 3.5 mph - 0.00 in   Mostly Cloudy
3:53 PM 79.0 °F - 75.0 °F 88% 29.96 in 10.0 mi Calm Calm - 0.00 in   Overcast
4:10 PM 80.6 °F 86.2 °F 75.2 °F 84% 29.95 in 10.0 mi South 3.5 mph - N/A   Overcast
4:53 PM 80.1 °F 85.1 °F 75.0 °F 85% 29.94 in 10.0 mi South 3.5 mph - N/A   Overcast
5:31 PM 80.6 °F 86.2 °F 75.2 °F 84% 29.93 in 10.0 mi South 3.5 mph - N/A   Scattered Clouds
5:53 PM 81.0 °F 87.3 °F 75.9 °F 85% 29.91 in 10.0 mi SSE 3.5 mph - N/A   Mostly Cloudy
6:34 PM 80.6 °F 87.1 °F 77.0 °F 89% 29.89 in 10.0 mi South 5.8 mph - N/A   Scattered Clouds
6:46 PM 80.6 °F 87.1 °F 77.0 °F 89% 29.90 in 10.0 mi SE 4.6 mph - N/A   Partly Cloudy
6:53 PM 81.0 °F 87.9 °F 77.0 °F 88% 29.89 in 10.0 mi SSE 6.9 mph - N/A   Partly Cloudy
7:12 PM 80.6 °F 87.1 °F 77.0 °F 89% 29.90 in 10.0 mi SE 3.5 mph - N/A   Mostly Cloudy
7:53 PM 80.1 °F 85.8 °F 77.0 °F 90% 29.91 in 10.0 mi SSE 3.5 mph - N/A   Overcast
8:42 PM 80.6 °F 87.1 °F 77.0 °F 89% 29.91 in 8.0 mi SSE 4.6 mph - N/A   Mostly Cloudy
8:50 PM 80.6 °F 87.1 °F 77.0 °F 89% 29.92 in 8.0 mi Calm Calm - N/A   Mostly Cloudy
8:53 PM 80.1 °F 85.8 °F 77.0 °F 90% 29.91 in 8.0 mi SE 3.5 mph - N/A   Mostly Cloudy
9:02 PM 80.6 °F 87.1 °F 77.0 °F 89% 29.92 in 8.0 mi SSE 3.5 mph - N/A   Mostly Cloudy
9:53 PM 79.0 °F - 75.9 °F 90% 29.91 in 5.0 mi Calm Calm - N/A   Partly Cloudy
10:53 PM 79.0 °F - 77.0 °F 94% 29.89 in 5.0 mi SSW 9.2 mph - 0.01 in Rain Light Rain
11:53 PM 80.1 °F 85.4 °F 75.9 °F 87% 29.87 in 10.0 mi SW 8.1 mph - 0.00 in Rain Light Rain